Regional Weather Roundup
Issued by NWS

Home | Current Version | Previous Version | Text Only | Print | Product List | Glossary On
Versions: 1 2 3 4 5 6 7 8 9 10 11 12 13 14 15 16 17 18 19 20 21 22 23 24 25 26 27 28 29 30 31 32 33 34 35 36 37 38 39 40 41 42 43 44 45 46 47 48 49 50
000
ASUS44 KJAN 240310
RWRMS

MISSISSIPPI HOURLY WEATHER ROUNDUP
NATIONAL WEATHER SERVICE JACKSON MS
1000 PM CDT SUN JUL 23 2017

NOTE: "FAIR: INDICATES FEW OR NO CLOUDS BELOW 12,000 FEET WITH NO
SIGNIFICANT WEATHER AND/OR OBSTRUCTIONS TO VISIBILITY.

MSZ001>002-007>008-010>013-018>021-025>028-034>036-240400-
NORTHWEST MISSISSIPPI

CITY           SKY/WX    TMP DP  RH WIND       PRES   REMARKS
BATESVILLE     FAIR      79  74  86 CALM      29.94R
CLARKSDALE       N/A     81  81 100 NW7       29.93R HX  91
CLEVELAND      FAIR      77  77 100 S6        29.91R
GREENWOOD      PTCLDY    77  75  93 SW3       29.91R
GREENVILLE     CLOUDY    77  73  87 SW5       29.91R
OXFORD         FAIR      81  70  69 W6        29.93R
TUNICA         LGT RAIN  70  68  94 CALM      29.95R
WINONA         FAIR      77  75  95 CALM      29.91R
$$

MSZ003>006-009-014>017-022>024-029>033-037>039-240400-
NORTHEAST MISSISSIPPI

CITY           SKY/WX    TMP DP  RH WIND       PRES   REMARKS
COLUMBUS AFB   CLEAR     80  76  88 CALM      29.88R
CORINTH        FAIR      77  72  83 NW3       29.89R
GOLDN TRIANGLE PTCLDY    84  70  61 CALM      29.86R
STARKVILLE     FAIR      79  73  83 W6        29.91R
TUPELO         CLEAR     83  73  72 CALM      29.89R
$$

MSZ040-058-240400-
CENTRAL MISSISSIPPI

CITY           SKY/WX    TMP DP  RH WIND       PRES   REMARKS
JACKSON INTL   PTCLDY    76  74  93 W5        29.93R
JACKSON HAWKNS PTCLDY    76  75  97 SW3       29.93R
MADISON        FAIR      73  72  94 SW6       29.93R
MERIDIAN KEY   CLEAR     78  75  90 SW7       29.92R
MERIDIAN NAS   CLEAR     79  71  76 W5        29.91R
RAYMOND        FAIR      75  73  94 S5        29.92R
$$

MSZ059>079-240400-
SOUTH MISSISSIPPI

CITY           SKY/WX    TMP DP  RH WIND       PRES   REMARKS
COLUMBIA       MOCLDY    75  73  94 CALM      29.97R
HATTIESBURG    MOCLDY    76  74  93 CALM      29.94R
LAUREL         FAIR      75  75 100 SW3       29.93R
MCCOMB         CLEAR     74  72  93 CALM      29.94R
NATCHEZ        NOT AVBL
PINE BELT      MOCLDY    75  73  94 SW3       29.94R
$$

MSZ080>082-240400-
COASTAL MISSISSIPPI

CITY           SKY/WX    TMP DP  RH WIND       PRES   REMARKS
BILOXI         CLEAR     76  72  87 CALM      29.93R
PASCAGOULA     CLEAR     76  71  85 W5        29.93R
GULFPORT       CLEAR     75  73  93 W3        29.93R
$$

LAZ007>009-015>016-023>026-240400-
NORTHEAST LOUISIANA

CITY           SKY/WX    TMP DP  RH WIND       PRES   REMARKS
BASTROP        FAIR      75  75  98 CALM      29.92R
TALLULAH/VBURG NOT AVBL
VIDALIA        FAIR      75  75  99 SW3       29.92R
$$



USA.gov is the U.S. government's official web portal to all federal, state and local government web resources and services.